Location: Seasalter
(51.3333°N, 1.0167°E)
Time: 12:03:50
(UTC+00:00)

Cosmos 2026 Rocket - Pass Details

Date: 26 September 2023
Orbit: 940 x 999 km, 82.9° (Epoch: 10 December)

Event Time Altitude Azimuth Distance (km) Brightness Sun altitude
Exits shadow 02:42:07 77° 255° (WSW) 990 3.8 -27.8°
Maximum altitude 02:42:21 78° 281° (W) 985 3.8 -27.8°
Drops below altitude 10° 02:48:30 10° 8° (N) 2,686 6.8 -27.1°
Sets 02:51:00 0° 10° (N) 3,630 7.6 -26.7°
